User: anonymous   Login
Location: Frankfurt am Main
(50.1109°N, 8.6821°E)
Time: 18:23:03
(UTC+02:00)
Language:

ISS - Orbit

View from above orbital plane
View from above orbital plane
View from above satellite
View from above satellite

Ground track
Ground track

The orbit data is extracted from the following two-line orbital elements,

1 25544U 98067A   21268.54952546  .00025229  00000-0  46666-3 0  9990
2 25544  51.6438 206.4913 0004280  25.5661 314.1772 15.48869606304143
Epoch (UTC): 25 September 2021 13:11:19
Eccentricity: 0.0004280
inclination: 51.6438°
perigee height: 417 km
apogee height: 423 km
right ascension of ascending node: 206.4913°
argument of perigee: 25.5661°
revolutions per day: 15.48869606
mean anomaly at epoch: 314.1772°
orbit number at epoch: 30414

The dashed part of the orbit path shows where the satellite is in the earth's shadow,  

DLR